| time (UTC) | temp F | wind direction | speed knots | gust knots | rain 1hr in | rain 24hr in | rain mn in | humidity % | barometer mb |
| 20260503192918 | 65 | 195 | 3.5 | 7.8 | 0.00 | 0.06 | 0.06 | 52 | 1008.1 |
| 20260503192415 | 64 | 172 | 2.6 | 12.2 | 0.00 | 0.06 | 0.06 | 52 | 1008.2 |
| 20260503191910 | 64 | 288 | 9.6 | 13.0 | 0.00 | 0.06 | 0.06 | 52 | 1008.2 |
| 20260503191408 | 63 | 183 | 3.5 | 7.8 | 0.00 | 0.06 | 0.06 | 55 | 1008.1 |
| 20260503190904 | 63 | 153 | 2.6 | 7.0 | 0.00 | 0.06 | 0.06 | 54 | 1008.4 |
| 20260503190402 | 62 | 193 | 4.3 | 7.0 | 0.00 | 0.06 | 0.06 | 59 | 1008.3 |
| 20260503185858 | 62 | 342 | 2.6 | 5.2 | 0.00 | 0.06 | 0.06 | 63 | 1008.4 |
| 20260503185355 | 61 | 175 | 4.3 | 7.0 | 0.00 | 0.06 | 0.06 | 62 | 1008.2 |
| 20260503184854 | 61 | 312 | 1.7 | 6.1 | 0.00 | 0.06 | 0.06 | 61 | 1008.8 |
| 20260503184350 | 60 | 172 | 3.5 | 8.7 | 0.00 | 0.06 | 0.06 | 61 | 1008.7 |
| 20260503183847 | 60 | 142 | 4.3 | 5.2 | 0.00 | 0.06 | 0.06 | 63 | 1008.8 |
| 20260503183344 | 59 | 183 | 2.6 | 7.8 | 0.00 | 0.06 | 0.06 | 65 | 1008.9 |
| 20260503182841 | 59 | 265 | 3.5 | 6.1 | 0.00 | 0.06 | 0.06 | 67 | 1009.1 |
| 20260503182340 | 58 | 196 | 1.7 | 9.6 | 0.00 | 0.06 | 0.06 | 66 | 1009.2 |
| 20260503181837 | 58 | 119 | 3.5 | 7.0 | 0.00 | 0.06 | 0.06 | 66 | 1009.1 |
| 20260503181334 | 57 | 280 | 0.9 | 6.1 | 0.00 | 0.06 | 0.06 | 69 | 1009.2 |
| 20260503180830 | 56 | 106 | 0.9 | 4.3 | 0.00 | 0.06 | 0.06 | 73 | 1009.6 |
| 20260503180328 | 55 | 91 | 0.9 | 4.3 | 0.00 | 0.06 | 0.06 | 76 | 1009.7 |
| 20260503175824 | 55 | 62 | 2.6 | 5.2 | 0.00 | 0.06 | 0.06 | 74 | 1009.8 |
| 20260503175323 | 55 | 197 | 2.6 | 6.1 | 0.00 | 0.06 | 0.06 | 74 | 1010.0 |
| 20260503174818 | 54 | 129 | 3.5 | 5.2 | 0.00 | 0.06 | 0.06 | 75 | 1010.1 |
| 20260503174316 | 54 | 122 | 0.9 | 5.2 | 0.00 | 0.06 | 0.06 | 75 | 1009.9 |
| 20260503173811 | 53 | 138 | 0.9 | 2.6 | 0.00 | 0.06 | 0.06 | 78 | 1010.1 |
| 20260503173308 | 52 | 113 | 2.6 | 5.2 | 0.00 | 0.06 | 0.06 | 79 | 1010.6 |
| 20260503172804 | 51 | 66 | 1.7 | 6.1 | 0.00 | 0.06 | 0.06 | 82 | 1010.7 |
| 20260503172305 | 50 | 154 | 2.6 | 5.2 | 0.00 | 0.06 | 0.06 | 85 | 1011.0 |
| 20260503171758 | 50 | 123 | 1.7 | 2.6 | 0.00 | 0.06 | 0.06 | 86 | 1010.9 |
| 20260503171255 | 50 | 111 | 0.9 | 2.6 | 0.00 | 0.06 | 0.06 | 85 | 1011.2 |
| 20260503170752 | 49 | 153 | 4.3 | 7.0 | 0.05 | 0.06 | 0.06 | 85 | 1011.4 |
| 20260503170249 | 49 | 110 | 1.7 | 2.6 | 0.05 | 0.06 | 0.06 | 88 | 1011.6 |
| 20260503160211 | 48 | 176 | 0.9 | 1.7 | 0.00 | 0.03 | 0.03 | 88 | 1012.8 |
| 20260503150641 | 54 | 226 | 6.1 | 11.3 | 0.00 | 0.00 | 0.00 | 65 | 1013.3 |
| 20260503150137 | 55 | 211 | 2.6 | 7.0 | 0.00 | 0.00 | 0.00 | 61 | 1013.2 |
| 20260503131031 | 50 | 165 | 2.6 | 4.3 | 0.00 | 0.00 | 0.00 | 64 | 1013.5 |
| 20260503130528 | 50 | 198 | 4.3 | 7.8 | 0.00 | 0.00 | 0.00 | 63 | 1013.5 |
| 20260503110419 | 46 | 227 | 2.6 | 2.6 | 0.00 | 0.00 | 0.00 | 67 | 1013.2 |
| 20260503090304 | 43 | 123 | 0.0 | 0.9 | 0.00 | 0.00 | 0.00 | 69 | 1013.8 |
| 20260503081231 | 44 | 125 | 0.0 | 0.9 | 0.00 | 0.00 | 0.00 | 66 | 1014.2 |
| 20260503080727 | 44 | 133 | 0.9 | 0.9 | 0.00 | 0.00 | 0.00 | 65 | 1014.0 |
| 20260503080224 | 44 | 228 | 0.9 | 1.7 | 0.00 | 0.00 | 0.00 | 64 | 1014.2 |
| 20260503072701 | 44 | 127 | 0.9 | 0.9 | 0.00 | 0.00 | 0.00 | 64 | 1014.2 |
| 20260503072158 | 44 | 142 | 0.0 | 1.7 | 0.00 | 0.00 | 0.00 | 64 | 1014.1 |
| 20260503071654 | 44 | 173 | 0.9 | 0.9 | 0.00 | 0.00 | 0.00 | 65 | 1014.1 |
| 20260503071151 | 44 | 104 | 0.9 | 0.9 | 0.00 | 0.00 | 0.00 | 64 | 1014.4 |
| 20260503070648 | 44 | 123 | 0.9 | 0.9 | 0.00 | 0.00 | 0.00 | 63 | 1014.3 |
| 20260503070146 | 44 | 164 | 0.9 | 0.9 | 0.00 | 0.00 | 0.00 | 64 | 1014.2 |
| 20260503060110 | 44 | 93 | 0.9 | 0.9 | 0.00 | 0.00 | 0.00 | 62 | 1015.1 |
| 20260503055102 | 45 | 158 | 0.9 | 1.7 | 0.00 | 0.00 | 0.00 | 61 | 1014.9 |
| 20260503054557 | 45 | 168 | 0.9 | 0.9 | 0.00 | 0.00 | 0.00 | 61 | 1014.9 |
| 20260503054055 | 45 | 156 | 0.0 | 0.9 | 0.00 | 0.00 | 0.00 | 61 | 1015.0 |
| 20260503053553 | 45 | 134 | 0.9 | 0.9 | 0.00 | 0.00 | 0.00 | 61 | 1015.1 |
| 20260503053050 | 45 | 110 | 0.0 | 1.7 | 0.00 | 0.00 | 0.00 | 60 | 1015.1 |
| 20260503052547 | 46 | 107 | 0.0 | 0.9 | 0.00 | 0.00 | 0.00 | 60 | 1015.0 |
| 20260503052043 | 46 | 118 | 0.0 | 0.9 | 0.00 | 0.00 | 0.00 | 60 | 1015.2 |
| 20260503051539 | 46 | 198 | 0.0 | 0.9 | 0.00 | 0.00 | 0.00 | 60 | 1015.2 |
| 20260503051037 | 46 | 135 | 0.0 | 0.9 | 0.00 | 0.00 | 0.00 | 59 | 1015.2 |
| 20260503050532 | 46 | 126 | 0.0 | 0.9 | 0.00 | 0.00 | 0.00 | 59 | 1015.1 |
| 20260503050030 | 46 | 120 | 0.0 | 0.9 | 0.00 | 0.00 | 0.00 | 58 | 1015.3 |
| 20260503045527 | 46 | 153 | 0.9 | 1.7 | 0.00 | 0.00 | 0.00 | 59 | 1015.2 |
| 20260503045024 | 46 | 125 | 0.0 | 0.0 | 0.00 | 0.00 | 0.00 | 59 | 1015.4 |
| 20260503044521 | 46 | 145 | 0.0 | 0.9 | 0.00 | 0.00 | 0.00 | 59 | 1015.4 |
| 20260503044019 | 46 | 174 | 0.9 | 1.7 | 0.00 | 0.00 | 0.00 | 58 | 1015.4 |
| 20260503043514 | 46 | 179 | 1.7 | 2.6 | 0.00 | 0.00 | 0.00 | 58 | 1015.3 |
| 20260503043011 | 47 | 160 | 0.9 | 0.9 | 0.00 | 0.00 | 0.00 | 59 | 1015.3 |
| 20260503042508 | 47 | 134 | 0.9 | 2.6 | 0.00 | 0.00 | 0.00 | 58 | 1015.2 |
| 20260503042004 | 47 | 167 | 0.9 | 0.9 | 0.00 | 0.00 | 0.00 | 57 | 1015.4 |
| 20260503041501 | 47 | 149 | 0.9 | 0.9 | 0.00 | 0.00 | 0.00 | 56 | 1015.0 |
| 20260503040959 | 47 | 180 | 0.9 | 1.7 | 0.00 | 0.00 | 0.00 | 58 | 1015.2 |
| 20260503040456 | 47 | 156 | 0.9 | 2.6 | 0.00 | 0.00 | 0.00 | 59 | 1015.4 |
| 20260503035953 | 47 | 141 | 0.9 | 0.9 | 0.00 | 0.00 | 0.00 | 58 | 1015.5 |
| 20260503035450 | 47 | 276 | 0.9 | 1.7 | 0.00 | 0.00 | 0.00 | 59 | 1015.5 |
| 20260503034948 | 47 | 118 | 0.9 | 0.9 | 0.00 | 0.00 | 0.00 | 61 | 1015.6 |
| 20260503034445 | 46 | 155 | 0.0 | 0.9 | 0.00 | 0.00 | 0.00 | 60 | 1015.6 |
| 20260503033942 | 46 | 157 | 0.9 | 0.9 | 0.00 | 0.00 | 0.00 | 61 | 1015.6 |
| 20260503033439 | 46 | 91 | 0.0 | 0.9 | 0.00 | 0.00 | 0.00 | 62 | 1015.5 |
| 20260503032937 | 47 | 1 | 0.9 | 0.9 | 0.00 | 0.00 | 0.00 | 62 | 1015.3 |
| 20260503032435 | 47 | 150 | 0.9 | 0.9 | 0.00 | 0.00 | 0.00 | 60 | 1015.8 |
| 20260503031932 | 47 | 243 | 0.9 | 1.7 | 0.00 | 0.00 | 0.00 | 60 | 1015.5 |
| 20260503031430 | 47 | 115 | 0.0 | 0.0 | 0.00 | 0.00 | 0.00 | 62 | 1015.7 |
| 20260503030927 | 47 | 121 | 0.0 | 0.9 | 0.00 | 0.00 | 0.00 | 61 | 1015.7 |
| 20260503030423 | 47 | 112 | 0.0 | 0.9 | 0.00 | 0.00 | 0.00 | 60 | 1015.6 |
| 20260503025920 | 47 | 119 | 0.0 | 1.7 | 0.00 | 0.00 | 0.00 | 60 | 1015.7 |
| 20260503025417 | 48 | 160 | 0.0 | 0.9 | 0.00 | 0.00 | 0.00 | 59 | 1015.5 |
| 20260503024914 | 48 | 120 | 0.0 | 0.9 | 0.00 | 0.00 | 0.00 | 59 | 1015.6 |
| 20260503024411 | 48 | 114 | 0.9 | 0.9 | 0.00 | 0.00 | 0.00 | 58 | 1015.5 |
| 20260503023908 | 48 | 171 | 0.9 | 0.9 | 0.00 | 0.00 | 0.00 | 58 | 1015.7 |
| 20260503023404 | 48 | 112 | 0.0 | 0.0 | 0.00 | 0.00 | 0.00 | 59 | 1015.5 |
| 20260503022901 | 48 | 125 | 0.9 | 0.9 | 0.00 | 0.00 | 0.00 | 58 | 1015.5 |
| 20260503022356 | 48 | 131 | 0.9 | 0.9 | 0.00 | 0.00 | 0.00 | 57 | 1015.5 |
| 20260503021853 | 49 | 119 | 0.0 | 0.9 | 0.00 | 0.00 | 0.00 | 56 | 1015.7 |
| 20260503021349 | 49 | 103 | 0.0 | 0.9 | 0.00 | 0.00 | 0.00 | 57 | 1015.5 |
| 20260503020846 | 49 | 109 | 0.0 | 1.7 | 0.00 | 0.00 | 0.00 | 57 | 1015.4 |
| 20260503020344 | 49 | 128 | 0.9 | 0.9 | 0.00 | 0.00 | 0.00 | 55 | 1015.6 |
| 20260503015840 | 49 | 157 | 0.0 | 1.7 | 0.00 | 0.00 | 0.00 | 56 | 1015.7 |
| 20260503015337 | 49 | 149 | 0.9 | 0.9 | 0.00 | 0.00 | 0.00 | 55 | 1015.5 |
| 20260503014833 | 50 | 160 | 0.9 | 1.7 | 0.00 | 0.00 | 0.00 | 54 | 1015.6 |
| 20260503014331 | 49 | 143 | 0.0 | 0.9 | 0.00 | 0.00 | 0.00 | 54 | 1015.3 |
| 20260503013828 | 49 | 155 | 0.0 | 0.9 | 0.00 | 0.00 | 0.00 | 54 | 1015.3 |
| 20260503013325 | 49 | 126 | 0.0 | 0.0 | 0.00 | 0.00 | 0.00 | 56 | 1015.6 |
| 20260503012822 | 49 | 159 | 0.9 | 0.9 | 0.00 | 0.00 | 0.00 | 55 | 1015.4 |
| 20260503012320 | 49 | 129 | 0.0 | 0.0 | 0.00 | 0.00 | 0.00 | 55 | 1015.3 |
| 20260503011817 | 49 | 115 | 0.0 | 0.0 | 0.00 | 0.00 | 0.00 | 57 | 1015.4 |
| 20260503011314 | 49 | 114 | 0.0 | 0.0 | 0.00 | 0.00 | 0.00 | 57 | 1015.3 |
| 20260503010810 | 49 | 116 | 0.0 | 0.0 | 0.00 | 0.00 | 0.00 | 59 | 1015.4 |
| 20260503010307 | 50 | 110 | 0.0 | 0.0 | 0.00 | 0.00 | 0.00 | 57 | 1015.3 |
| 20260503005804 | 50 | 109 | 0.0 | 0.0 | 0.00 | 0.00 | 0.00 | 56 | 1015.4 |
| 20260503005304 | 50 | 113 | 0.0 | 0.0 | 0.00 | 0.00 | 0.00 | 55 | 1015.4 |
| 20260503004757 | 51 | 116 | 0.0 | 0.0 | 0.00 | 0.00 | 0.00 | 55 | 1015.3 |
| 20260503004255 | 51 | 122 | 0.0 | 0.0 | 0.00 | 0.00 | 0.00 | 51 | 1015.3 |
| 20260503003753 | 51 | 114 | 0.0 | 0.0 | 0.00 | 0.00 | 0.00 | 50 | 1015.1 |
| 20260503003249 | 52 | 128 | 0.0 | 0.0 | 0.00 | 0.00 | 0.00 | 49 | 1015.5 |
| 20260503002746 | 52 | 126 | 0.0 | 0.9 | 0.00 | 0.00 | 0.00 | 48 | 1015.5 |
| 20260503002243 | 53 | 91 | 0.0 | 0.0 | 0.00 | 0.00 | 0.00 | 49 | 1015.2 |
| 20260503001739 | 53 | 183 | 0.9 | 1.7 | 0.00 | 0.00 | 0.00 | 46 | 1015.4 |
| 20260503001235 | 54 | 85 | 0.0 | 0.9 | 0.00 | 0.00 | 0.00 | 47 | 1015.6 |
| 20260503000734 | 54 | 103 | 0.9 | 0.9 | 0.00 | 0.00 | 0.00 | 45 | 1015.7 |
| 20260503000233 | 54 | 80 | 0.9 | 1.7 | 0.00 | 0.00 | 0.00 | 44 | 1015.5 |
| 20260502235727 | 55 | 112 | 1.7 | 4.3 | 0.00 | 0.00 | 0.00 | 46 | 1015.4 |
| 20260502235226 | 55 | 57 | 1.7 | 2.6 | 0.00 | 0.00 | 0.00 | 46 | 1015.5 |
| 20260502234721 | 55 | 305 | 1.7 | 4.3 | 0.00 | 0.00 | 0.00 | 45 | 1015.8 |
| 20260502234219 | 55 | 310 | 3.5 | 4.3 | 0.00 | 0.00 | 0.00 | 43 | 1015.6 |
| 20260502233714 | 55 | 130 | 0.9 | 2.6 | 0.00 | 0.00 | 0.00 | 46 | 1015.7 |
| 20260502233212 | 55 | 9 | 0.9 | 2.6 | 0.00 | 0.00 | 0.00 | 45 | 1015.6 |
| 20260502232707 | 56 | 92 | 1.7 | 2.6 | 0.00 | 0.00 | 0.00 | 44 | 1015.7 |
| 20260502232205 | 56 | 270 | 2.6 | 2.6 | 0.00 | 0.00 | 0.00 | 45 | 1015.5 |
| 20260502231701 | 55 | 106 | 0.0 | 0.9 | 0.00 | 0.00 | 0.00 | 45 | 1015.9 |
| 20260502231159 | 55 | 114 | 0.9 | 0.9 | 0.00 | 0.00 | 0.00 | 49 | 1015.7 |
| 20260502230658 | 55 | 90 | 0.0 | 0.9 | 0.00 | 0.00 | 0.00 | 46 | 1015.8 |
| 20260502230156 | 56 | 314 | 1.7 | 1.7 | 0.00 | 0.00 | 0.00 | 45 | 1015.9 |
| 20260502225651 | 56 | 253 | 0.9 | 2.6 | 0.00 | 0.00 | 0.00 | 42 | 1015.9 |
| 20260502225149 | 56 | 77 | 0.9 | 1.7 | 0.00 | 0.00 | 0.00 | 45 | 1016.0 |
| 20260502224644 | 56 | 54 | 2.6 | 4.3 | 0.00 | 0.00 | 0.00 | 44 | 1016.1 |
| 20260502224141 | 56 | 94 | 0.9 | 1.7 | 0.00 | 0.00 | 0.00 | 44 | 1016.0 |
| 20260502223639 | 57 | 31 | 1.7 | 2.6 | 0.00 | 0.00 | 0.00 | 46 | 1016.0 |
| 20260502223137 | 57 | 259 | 2.6 | 4.3 | 0.00 | 0.00 | 0.00 | 41 | 1016.0 |
| 20260502222634 | 57 | 79 | 0.9 | 1.7 | 0.00 | 0.00 | 0.00 | 43 | 1015.8 |
| 20260502222131 | 56 | 126 | 1.7 | 2.6 | 0.00 | 0.00 | 0.00 | 42 | 1015.9 |
| 20260502221627 | 59 | 75 | 1.7 | 4.3 | 0.00 | 0.00 | 0.00 | 41 | 1016.0 |
| 20260502221124 | 57 | 87 | 1.7 | 2.6 | 0.00 | 0.00 | 0.00 | 44 | 1016.0 |
| 20260502220620 | 55 | 186 | 0.9 | 0.9 | 0.00 | 0.00 | 0.00 | 44 | 1016.1 |
| 20260502220116 | 56 | 54 | 0.9 | 4.3 | 0.00 | 0.00 | 0.00 | 44 | 1016.2 |
| 20260502215614 | 57 | 173 | 0.9 | 1.7 | 0.00 | 0.00 | 0.00 | 44 | 1016.0 |
| 20260502215110 | 57 | 136 | 1.7 | 1.7 | 0.00 | 0.00 | 0.00 | 42 | 1016.1 |
| 20260502214607 | 57 | 23 | 2.6 | 2.6 | 0.00 | 0.00 | 0.00 | 44 | 1016.0 |
| 20260502214105 | 56 | 299 | 2.6 | 2.6 | 0.00 | 0.00 | 0.00 | 43 | 1016.3 |
| 20260502213602 | 58 | 27 | 1.7 | 2.6 | 0.00 | 0.00 | 0.00 | 46 | 1016.1 |
| 20260502213059 | 56 | 96 | 0.9 | 0.9 | 0.00 | 0.00 | 0.00 | 45 | 1016.2 |
| 20260502212558 | 56 | 210 | 1.7 | 2.6 | 0.00 | 0.00 | 0.00 | 44 | 1016.3 |
| 20260502212055 | 57 | 103 | 0.9 | 4.3 | 0.00 | 0.00 | 0.00 | 46 | 1016.2 |
| 20260502211550 | 55 | 2 | 0.9 | 1.7 | 0.00 | 0.00 | 0.00 | 45 | 1016.4 |
| 20260502211048 | 55 | 143 | 1.7 | 5.2 | 0.00 | 0.00 | 0.00 | 42 | 1016.3 |
| 20260502210545 | 55 | 154 | 1.7 | 4.3 | 0.00 | 0.00 | 0.00 | 43 | 1016.3 |
| 20260502210042 | 55 | 88 | 0.9 | 1.7 | 0.00 | 0.00 | 0.00 | 43 | 1016.4 |
| 20260502205538 | 55 | 37 | 2.6 | 2.6 | 0.00 | 0.00 | 0.00 | 44 | 1016.4 |
| 20260502205036 | 55 | 275 | 1.7 | 4.3 | 0.00 | 0.00 | 0.00 | 44 | 1016.6 |
| 20260502204532 | 57 | 60 | 0.9 | 2.6 | 0.00 | 0.00 | 0.00 | 46 | 1016.6 |
| 20260502204030 | 57 | 269 | 1.7 | 2.6 | 0.00 | 0.00 | 0.00 | 40 | 1016.5 |
| 20260502203527 | 57 | 38 | 1.7 | 4.3 | 0.00 | 0.00 | 0.00 | 45 | 1016.7 |
| 20260502203024 | 57 | 269 | 2.6 | 4.3 | 0.00 | 0.00 | 0.00 | 44 | 1016.7 |
| 20260502202520 | 57 | 57 | 2.6 | 4.3 | 0.00 | 0.00 | 0.00 | 42 | 1016.7 |
| 20260502202019 | 54 | 109 | 0.9 | 4.3 | 0.00 | 0.00 | 0.00 | 47 | 1017.1 |
| 20260502201514 | 56 | 102 | 0.0 | 1.7 | 0.00 | 0.00 | 0.00 | 46 | 1017.1 |
| 20260502201011 | 57 | 42 | 1.7 | 2.6 | 0.00 | 0.00 | 0.00 | 45 | 1017.0 |
| 20260502200507 | 56 | 46 | 2.6 | 6.1 | 0.00 | 0.00 | 0.00 | 45 | 1017.1 |
| 20260502200005 | 58 | 272 | 2.6 | 2.6 | 0.00 | 0.00 | 0.00 | 43 | 1017.0 |
| 20260502195502 | 57 | 137 | 0.9 | 0.9 | 0.00 | 0.00 | 0.00 | 43 | 1017.1 |
| 20260502194958 | 55 | 19 | 3.5 | 4.3 | 0.00 | 0.00 | 0.00 | 46 | 1017.4 |
| 20260502194455 | 54 | 106 | 0.9 | 1.7 | 0.00 | 0.00 | 0.00 | 52 | 1017.4 |
| 20260502193950 | 55 | 345 | 2.6 | 2.6 | 0.00 | 0.00 | 0.00 | 47 | 1017.8 |
| 20260502193448 | 55 | 171 | 3.5 | 5.2 | 0.00 | 0.00 | 0.00 | 45 | 1017.6 |